PAY1385 EKCH-KSEA

Flight info

Callsign PAY1385
Flight time N/A
Altitude 36000
Route GOLGA DCT RETKA DCT BURIX DCT 64N000E/M081F360 68N010W 71N020W/M082F380 73N040W 73N060W DCT MEDPA/N0473F380 DCT 70N087W/N0481F400 65N101W 59N110W DCT AROUK DCT 50N119W DCT NOSOM DCT GLASR
Aircraft B772/H-SDE2E3FGHIJ5LORVWXY/LB1D1

Departure

Time N/A
Airport Copenhagen Kastrup Airport (EKCH)

Arrival

Time 2026-05-04 00:46
Airport Seattle–Tacoma International Airport (KSEA)
Time Latitude Longitude Altitude Speed Heading
2026-05-03 20:15 72.83137 -64.67100 38593 ft 481 kts 262°
2026-05-03 20:15 72.82053 -64.89410 38594 ft 481 kts 262°
2026-05-03 20:16 72.80953 -65.11538 38611 ft 482 kts 262°
2026-05-03 20:16 72.79828 -65.33662 38598 ft 482 kts 262°
2026-05-03 20:17 72.78667 -65.55956 38593 ft 482 kts 262°
2026-05-03 20:17 72.77491 -65.78065 38598 ft 482 kts 261°
2026-05-03 20:18 72.76290 -66.00156 38597 ft 482 kts 261°
2026-05-03 20:18 72.75060 -66.22308 38588 ft 482 kts 261°
2026-05-03 20:19 72.73817 -66.44221 38583 ft 481 kts 261°
2026-05-03 20:19 72.72545 -66.66216 38587 ft 480 kts 260°
2026-05-03 20:20 72.71248 -66.88181 38594 ft 481 kts 260°
2026-05-03 20:20 72.69936 -67.09980 38597 ft 480 kts 260°
2026-05-03 20:21 72.68589 -67.31912 38593 ft 481 kts 260°
2026-05-03 20:21 72.67230 -67.53639 38598 ft 480 kts 260°
2026-05-03 20:22 72.65775 -67.75382 38589 ft 481 kts 257°
2026-05-03 20:22 72.64168 -67.96990 38604 ft 481 kts 257°
2026-05-03 20:23 72.62529 -68.18600 38594 ft 481 kts 257°
2026-05-03 20:23 72.60863 -68.40176 38600 ft 481 kts 257°
2026-05-03 20:24 72.59182 -68.61577 38600 ft 480 kts 257°
2026-05-03 20:24 72.57465 -68.83105 38600 ft 481 kts 256°
2026-05-03 20:25 72.55732 -69.04479 38605 ft 480 kts 256°
2026-05-03 20:25 72.53979 -69.25784 38608 ft 480 kts 256°
2026-05-03 20:26 72.52196 -69.47146 38615 ft 480 kts 256°
2026-05-03 20:26 72.50404 -69.68285 38611 ft 480 kts 255°
2026-05-03 20:27 72.48586 -69.89442 38609 ft 480 kts 255°
2026-05-03 20:27 72.46738 -70.10622 38598 ft 480 kts 255°
2026-05-03 20:28 72.44874 -70.31704 38590 ft 480 kts 255°
2026-05-03 20:28 72.42974 -70.52883 38593 ft 480 kts 255°
2026-05-03 20:29 72.41076 -70.73759 38592 ft 480 kts 254°
2026-05-03 20:29 72.39130 -70.94874 38595 ft 480 kts 254°
2026-05-03 20:30 72.37176 -71.15781 38594 ft 480 kts 254°
2026-05-03 20:30 72.35200 -71.36646 38589 ft 480 kts 254°
2026-05-03 20:31 72.33203 -71.57455 38593 ft 480 kts 254°
2026-05-03 20:31 72.31181 -71.78264 38598 ft 480 kts 253°
2026-05-03 20:32 72.29132 -71.99061 38599 ft 480 kts 253°
2026-05-03 20:32 72.27070 -72.19735 38597 ft 481 kts 253°
2026-05-03 20:33 72.24976 -72.40452 38600 ft 480 kts 253°
2026-05-03 20:33 72.22866 -72.61079 38597 ft 479 kts 253°
2026-05-03 20:34 72.20744 -72.81561 38600 ft 480 kts 252°
2026-05-03 20:34 72.18591 -73.02085 38599 ft 481 kts 252°
2026-05-03 20:35 72.16415 -73.22588 38595 ft 481 kts 252°
2026-05-03 20:35 72.14217 -73.43034 38592 ft 481 kts 252°
2026-05-03 20:36 72.11990 -73.63512 38589 ft 480 kts 252°
2026-05-03 20:36 72.09753 -73.83836 38592 ft 481 kts 251°
2026-05-03 20:37 72.07483 -74.04216 38590 ft 481 kts 251°
2026-05-03 20:37 72.05215 -74.24340 38582 ft 480 kts 251°
2026-05-03 20:38 72.02902 -74.44634 38533 ft 480 kts 251°
2026-05-03 20:38 72.00581 -74.64764 38454 ft 480 kts 251°
2026-05-03 20:39 71.98231 -74.84908 38391 ft 481 kts 250°
2026-05-03 20:39 71.95873 -75.04887 38287 ft 480 kts 250°
2026-05-03 20:40 71.93488 -75.24880 38379 ft 481 kts 250°
2026-05-03 20:40 71.91084 -75.44813 38446 ft 480 kts 250°
2026-05-03 20:41 71.88652 -75.64751 38440 ft 482 kts 250°
2026-05-03 20:41 71.86192 -75.84694 38421 ft 482 kts 249°
2026-05-03 20:42 71.83724 -76.04486 38242 ft 480 kts 249°
2026-05-03 20:42 71.81229 -76.24284 38256 ft 480 kts 249°
2026-05-03 20:43 71.78740 -76.43825 38360 ft 478 kts 249°
2026-05-03 20:43 71.76208 -76.63493 38428 ft 481 kts 249°
2026-05-03 20:44 71.73663 -76.83051 38337 ft 479 kts 248°
2026-05-03 20:44 71.71101 -77.02539 38336 ft 480 kts 248°
2026-05-03 20:45 71.68494 -77.22163 38323 ft 481 kts 248°
2026-05-03 20:45 71.65898 -77.41499 38317 ft 481 kts 248°
2026-05-03 20:46 71.63270 -77.60883 38325 ft 480 kts 248°
2026-05-03 20:46 71.60609 -77.80296 38386 ft 481 kts 247°
2026-05-03 20:47 71.57925 -77.99689 38334 ft 481 kts 247°
2026-05-03 20:47 71.55242 -78.18883 38312 ft 480 kts 247°
2026-05-03 20:48 71.52538 -78.38032 38318 ft 480 kts 247°
2026-05-03 20:48 71.49802 -78.57217 38322 ft 480 kts 247°
2026-05-03 20:49 71.47054 -78.76296 38347 ft 480 kts 246°
2026-05-03 20:49 71.44282 -78.95351 38333 ft 481 kts 246°
2026-05-03 20:50 71.41501 -79.14292 38332 ft 482 kts 246°
2026-05-03 20:50 71.38691 -79.33237 38342 ft 481 kts 246°
2026-05-03 20:51 71.35850 -79.52207 38356 ft 481 kts 246°
2026-05-03 20:51 71.33015 -79.70968 38390 ft 483 kts 245°
2026-05-03 20:52 71.30146 -79.89761 38420 ft 482 kts 245°
2026-05-03 20:52 71.27261 -80.08487 38430 ft 483 kts 245°
2026-05-03 20:53 71.24352 -80.27196 38435 ft 482 kts 245°
2026-05-03 20:53 71.21420 -80.45873 38424 ft 484 kts 245°
2026-05-03 20:54 71.18477 -80.64445 38421 ft 483 kts 245°
2026-05-03 20:54 71.14019 -80.92257 38408 ft 483 kts 244°
2026-05-03 20:55 71.11025 -81.10723 38421 ft 484 kts 244°
2026-05-03 20:55 71.08010 -81.29147 38435 ft 484 kts 244°
2026-05-03 20:56 71.04987 -81.47459 38425 ft 484 kts 244°
2026-05-03 20:56 71.01925 -81.65835 38427 ft 484 kts 243°
2026-05-03 20:57 70.98843 -81.84167 38429 ft 485 kts 243°
2026-05-03 20:57 70.95757 -82.02365 38405 ft 485 kts 243°
2026-05-03 20:58 70.92637 -82.20594 38430 ft 484 kts 243°
2026-05-03 20:58 70.89522 -82.38633 38419 ft 484 kts 243°
2026-05-03 20:59 70.86381 -82.56667 38422 ft 485 kts 243°
2026-05-03 20:59 70.83201 -82.74765 38412 ft 485 kts 242°
2026-05-03 21:00 70.80553 -82.89714 38417 ft 485 kts 242°
2026-05-03 21:00 70.76818 -83.10619 38402 ft 486 kts 242°
2026-05-03 21:01 70.73583 -83.28558 38407 ft 486 kts 242°
2026-05-03 21:01 70.70338 -83.46394 38423 ft 487 kts 242°
2026-05-03 21:02 70.67084 -83.64130 38429 ft 486 kts 242°
2026-05-03 21:02 70.63818 -83.81786 38457 ft 484 kts 241°
2026-05-03 21:03 70.60534 -83.99384 38456 ft 485 kts 241°
2026-05-03 21:03 70.57237 -84.16906 38471 ft 485 kts 241°
2026-05-03 21:04 70.53913 -84.34422 38466 ft 485 kts 241°
2026-05-03 21:04 70.50577 -84.51857 38458 ft 484 kts 240°
2026-05-03 21:05 70.47224 -84.69242 38434 ft 485 kts 240°
2026-05-03 21:05 70.43856 -84.86554 38422 ft 484 kts 240°
2026-05-03 21:06 70.40476 -85.03790 38395 ft 485 kts 240°
2026-05-03 21:06 70.37050 -85.21121 38392 ft 484 kts 239°
2026-05-03 21:07 70.33626 -85.38296 38366 ft 486 kts 239°
2026-05-03 21:07 70.30187 -85.55409 38330 ft 486 kts 239°
2026-05-03 21:08 70.26713 -85.72559 38329 ft 486 kts 239°
2026-05-03 21:08 70.23248 -85.89523 38344 ft 487 kts 238°
2026-05-03 21:09 70.19761 -86.06463 38342 ft 486 kts 239°
2026-05-03 21:09 70.16245 -86.23408 38364 ft 488 kts 239°
2026-05-03 21:10 70.12710 -86.40311 38381 ft 488 kts 239°
2026-05-03 21:10 70.09160 -86.57149 38409 ft 489 kts 239°
2026-05-03 21:11 70.05585 -86.73975 38419 ft 489 kts 238°
2026-05-03 21:11 70.01985 -86.90746 38409 ft 489 kts 236°
2026-05-03 21:12 69.98070 -87.06973 38500 ft 490 kts 234°
2026-05-03 21:12 69.96101 -87.14906 38635 ft 491 kts 234°
2026-05-03 21:12 69.94082 -87.22977 38836 ft 489 kts 234°
2026-05-03 21:13 69.92088 -87.30883 38979 ft 489 kts 234°
2026-05-03 21:13 69.90083 -87.38783 39108 ft 490 kts 234°
2026-05-03 21:13 69.88064 -87.46687 39229 ft 490 kts 234°
2026-05-03 21:13 69.86047 -87.54538 39325 ft 491 kts 234°
2026-05-03 21:14 69.81947 -87.70387 39538 ft 491 kts 233°
2026-05-03 21:14 69.79906 -87.78223 39676 ft 491 kts 233°
2026-05-03 21:14 69.77864 -87.86031 39746 ft 492 kts 233°
2026-05-03 21:15 69.73756 -88.01648 39927 ft 493 kts 232°
2026-05-03 21:15 69.71667 -88.09541 40042 ft 492 kts 233°
2026-05-03 21:15 69.69617 -88.17259 40130 ft 492 kts 233°
2026-05-03 21:16 69.65458 -88.32832 40313 ft 492 kts 233°
2026-05-03 21:16 69.61304 -88.48270 40396 ft 491 kts 232°
2026-05-03 21:17 69.57838 -88.61064 40404 ft 492 kts 233°
2026-05-03 21:17 69.52947 -88.78996 40407 ft 494 kts 232°
2026-05-03 21:18 69.48733 -88.94324 40406 ft 494 kts 232°
2026-05-03 21:18 69.44482 -89.09677 40414 ft 494 kts 232°
2026-05-03 21:19 69.40223 -89.24948 40410 ft 494 kts 232°
2026-05-03 21:19 69.35987 -89.40030 40416 ft 494 kts 232°
2026-05-03 21:20 69.31718 -89.55125 40419 ft 494 kts 232°
2026-05-03 21:20 69.27429 -89.70182 40420 ft 494 kts 231°
2026-05-03 21:21 69.23109 -89.85246 40414 ft 495 kts 231°
2026-05-03 21:21 69.18768 -90.00272 40406 ft 496 kts 231°
2026-05-03 21:22 69.14426 -90.15198 40419 ft 496 kts 231°
2026-05-03 21:22 69.10080 -90.30039 40413 ft 496 kts 231°
2026-05-03 21:23 69.05716 -90.44837 40409 ft 495 kts 231°
2026-05-03 21:23 69.01335 -90.59587 40403 ft 496 kts 231°
2026-05-03 21:24 68.96908 -90.74394 40382 ft 496 kts 230°
2026-05-03 21:24 68.92509 -90.89005 40366 ft 497 kts 230°
2026-05-03 21:25 68.88071 -91.03643 40348 ft 497 kts 230°
2026-05-03 21:25 68.83607 -91.18267 40339 ft 497 kts 230°
2026-05-03 21:26 68.79156 -91.32752 40330 ft 497 kts 230°
2026-05-03 21:26 68.74679 -91.47220 40316 ft 497 kts 230°
2026-05-03 21:27 68.70198 -91.61603 40304 ft 498 kts 230°
2026-05-03 21:27 68.65683 -91.76000 40295 ft 497 kts 229°
2026-05-03 21:28 68.61167 -91.90302 40302 ft 498 kts 229°
2026-05-03 21:28 68.56653 -92.04504 40303 ft 498 kts 229°
2026-05-03 21:29 68.52120 -92.18671 40311 ft 498 kts 229°
2026-05-03 21:29 68.47550 -92.32858 40325 ft 498 kts 229°
2026-05-03 21:30 68.43006 -92.46871 40317 ft 498 kts 229°
2026-05-03 21:30 68.38420 -92.60921 40315 ft 498 kts 229°
2026-05-03 21:31 68.33823 -92.74912 40317 ft 499 kts 227°
2026-05-03 21:31 68.29218 -92.88834 40321 ft 499 kts 227°
2026-05-03 21:32 68.24607 -93.02684 40322 ft 499 kts 227°
2026-05-03 21:32 68.19974 -93.16509 40324 ft 500 kts 228°
2026-05-03 21:33 68.15299 -93.30369 40319 ft 500 kts 228°
2026-05-03 21:33 68.10636 -93.44104 40311 ft 500 kts 228°
2026-05-03 21:34 68.05976 -93.57743 40302 ft 501 kts 227°
2026-05-03 21:34 68.01278 -93.71402 40287 ft 501 kts 227°
2026-05-03 21:35 67.96596 -93.84927 40290 ft 502 kts 227°
2026-05-03 21:35 67.91853 -93.98544 40292 ft 502 kts 227°
2026-05-03 21:36 67.87129 -94.12015 40288 ft 502 kts 227°
2026-05-03 21:36 67.82378 -94.25478 40280 ft 502 kts 227°
2026-05-03 21:37 67.77637 -94.38830 40277 ft 501 kts 227°
2026-05-03 21:37 67.72897 -94.52090 40271 ft 502 kts 227°
2026-05-03 21:38 67.68126 -94.65357 40271 ft 502 kts 226°
2026-05-03 21:38 67.63317 -94.78642 40268 ft 503 kts 226°
2026-05-03 21:39 67.58513 -94.91832 40270 ft 503 kts 226°
2026-05-03 21:39 67.53669 -95.05046 40269 ft 503 kts 226°
2026-05-03 21:40 67.48850 -95.18115 40276 ft 503 kts 226°
2026-05-03 21:40 67.43984 -95.31221 40280 ft 503 kts 226°
2026-05-03 21:41 67.39130 -95.44218 40290 ft 504 kts 226°
2026-05-03 21:41 67.34270 -95.57149 40297 ft 504 kts 226°
2026-05-03 21:42 67.29386 -95.70064 40293 ft 504 kts 225°
2026-05-03 21:42 67.24524 -95.82844 40289 ft 504 kts 225°
2026-05-03 21:43 67.19607 -95.95686 40275 ft 505 kts 225°
2026-05-03 21:43 67.14669 -96.08504 40272 ft 506 kts 225°
2026-05-03 21:44 67.09751 -96.21193 40270 ft 506 kts 225°
2026-05-03 21:44 67.04772 -96.33959 40267 ft 506 kts 225°
2026-05-03 21:45 66.99807 -96.46614 40259 ft 507 kts 225°
2026-05-03 21:45 66.94840 -96.59193 40245 ft 506 kts 225°
2026-05-03 21:46 66.89874 -96.71697 40238 ft 506 kts 224°
2026-05-03 21:46 66.84837 -96.84303 40228 ft 507 kts 224°
2026-05-03 21:47 66.79819 -96.96784 40218 ft 508 kts 224°
2026-05-03 21:47 66.74794 -97.09208 40213 ft 509 kts 224°
2026-05-03 21:48 66.69751 -97.21599 40211 ft 509 kts 224°
2026-05-03 21:48 66.64658 -97.34041 40208 ft 509 kts 224°
2026-05-03 21:49 66.59589 -97.46349 40209 ft 508 kts 224°
2026-05-03 21:49 66.54498 -97.58635 40212 ft 509 kts 224°
2026-05-03 21:50 66.49426 -97.70803 40206 ft 509 kts 223°
2026-05-03 21:50 66.44316 -97.82990 40209 ft 509 kts 223°
2026-05-03 21:51 66.39223 -97.95065 40203 ft 510 kts 223°
2026-05-03 21:51 66.34107 -98.07123 40201 ft 510 kts 223°
2026-05-03 21:52 66.28954 -98.19199 40201 ft 510 kts 223°
2026-05-03 21:52 66.23786 -98.31233 40198 ft 510 kts 223°
2026-05-03 21:53 66.18621 -98.43192 40188 ft 510 kts 223°
2026-05-03 21:53 66.13468 -98.55056 40193 ft 511 kts 223°
2026-05-03 21:54 66.08276 -98.66939 40183 ft 511 kts 222°
2026-05-03 21:54 66.03072 -98.78777 40188 ft 512 kts 222°
2026-05-03 21:55 65.97856 -98.90576 40181 ft 512 kts 222°
2026-05-03 21:55 65.92619 -99.02354 40176 ft 511 kts 222°
2026-05-03 21:56 65.87408 -99.14006 40171 ft 511 kts 222°
2026-05-03 21:56 65.82149 -99.25698 40173 ft 511 kts 222°
2026-05-03 21:57 65.76904 -99.37289 40170 ft 512 kts 222°
2026-05-03 21:57 65.71656 -99.48823 40167 ft 512 kts 222°
2026-05-03 21:58 65.66402 -99.60304 40168 ft 513 kts 222°
2026-05-03 21:58 65.61106 -99.71809 40166 ft 513 kts 221°
2026-05-03 21:59 65.55793 -99.83288 40168 ft 513 kts 221°
2026-05-03 21:59 65.50458 -99.94748 40167 ft 513 kts 221°
2026-05-03 22:00 65.45144 -100.06097 40169 ft 514 kts 221°
2026-05-03 22:00 65.39766 -100.17519 40159 ft 514 kts 221°
2026-05-03 22:01 65.34428 -100.28789 40162 ft 514 kts 221°
2026-05-03 22:01 65.29113 -100.39951 40166 ft 514 kts 221°
2026-05-03 22:02 65.23759 -100.51131 40163 ft 514 kts 221°
2026-05-03 22:02 65.18388 -100.62283 40159 ft 514 kts 221°
2026-05-03 22:03 65.12994 -100.73422 40166 ft 515 kts 220°
2026-05-03 22:03 65.07602 -100.84493 40155 ft 515 kts 221°
2026-05-03 22:04 65.02179 -100.95564 40149 ft 516 kts 220°
2026-05-03 22:04 64.96712 -101.06252 40153 ft 516 kts 219°
2026-05-03 22:05 64.91153 -101.16954 40151 ft 516 kts 219°
2026-05-03 22:05 64.85600 -101.27567 40151 ft 516 kts 219°
2026-05-03 22:06 64.80057 -101.38097 40148 ft 516 kts 219°
2026-05-03 22:06 64.74455 -101.48673 40144 ft 517 kts 219°
2026-05-03 22:07 64.68896 -101.59109 40138 ft 517 kts 219°
2026-05-03 22:07 64.63279 -101.69596 40144 ft 517 kts 218°
2026-05-03 22:08 64.57688 -101.79976 40141 ft 518 kts 218°
2026-05-03 22:08 64.52089 -101.90316 40142 ft 517 kts 218°
2026-05-03 22:09 64.46404 -102.00755 40142 ft 517 kts 218°
2026-05-03 22:10 64.37975 -102.16131 40131 ft 518 kts 218°
2026-05-03 22:10 64.32278 -102.26453 40122 ft 518 kts 219°
2026-05-03 22:11 64.26627 -102.36637 40126 ft 518 kts 219°
2026-05-03 22:11 64.20929 -102.46850 40125 ft 518 kts 219°
2026-05-03 22:12 64.15211 -102.57046 40121 ft 519 kts 219°
2026-05-03 22:12 64.09501 -102.67171 40124 ft 520 kts 218°
2026-05-03 22:13 64.03831 -102.77171 40119 ft 519 kts 218°
2026-05-03 22:13 63.98121 -102.87191 40118 ft 520 kts 218°
2026-05-03 22:14 63.92429 -102.97125 40106 ft 520 kts 218°
2026-05-03 22:14 63.86726 -103.07027 40094 ft 520 kts 218°
2026-05-03 22:15 63.80991 -103.16933 40083 ft 520 kts 218°
2026-05-03 22:15 63.75207 -103.26871 40070 ft 521 kts 218°
2026-05-03 22:16 63.69466 -103.36682 40069 ft 521 kts 218°
2026-05-03 22:16 63.63725 -103.46444 40068 ft 521 kts 218°
2026-05-03 22:17 63.57918 -103.56265 40068 ft 522 kts 218°
2026-05-03 22:17 63.52145 -103.65980 40068 ft 522 kts 217°
2026-05-03 22:18 63.46323 -103.75723 40058 ft 523 kts 217°
2026-05-03 22:18 63.40519 -103.85389 40057 ft 522 kts 217°
2026-05-03 22:19 63.34707 -103.95017 40059 ft 523 kts 217°
2026-05-03 22:19 63.28894 -104.04597 40045 ft 524 kts 217°
2026-05-03 22:20 63.23056 -104.14168 40041 ft 524 kts 217°
2026-05-03 22:20 63.17190 -104.23738 40045 ft 524 kts 217°
2026-05-03 22:21 63.11349 -104.33218 40049 ft 524 kts 217°
2026-05-03 22:21 63.05530 -104.42612 40052 ft 524 kts 218°
2026-05-03 22:22 62.99648 -104.52062 40048 ft 525 kts 218°
2026-05-03 22:22 62.93769 -104.61458 40051 ft 525 kts 218°
2026-05-03 22:23 62.87844 -104.70879 40039 ft 526 kts 217°
2026-05-03 22:23 62.81956 -104.80194 40045 ft 526 kts 217°
2026-05-03 22:24 62.76061 -104.89473 40037 ft 526 kts 217°
2026-05-03 22:24 62.70150 -104.98731 40024 ft 526 kts 217°
2026-05-03 22:25 62.64196 -105.08009 40021 ft 527 kts 217°
2026-05-03 22:25 62.58289 -105.17168 40021 ft 527 kts 217°
2026-05-03 22:26 62.52331 -105.26360 40018 ft 527 kts 217°
2026-05-03 22:26 62.46358 -105.35530 40009 ft 527 kts 217°
2026-05-03 22:27 62.40405 -105.44623 40011 ft 527 kts 217°
2026-05-03 22:27 62.34470 -105.53644 40013 ft 528 kts 217°
2026-05-03 22:28 62.28482 -105.62700 40008 ft 528 kts 217°
2026-05-03 22:28 62.22463 -105.71757 40004 ft 528 kts 216°
2026-05-03 22:29 62.16459 -105.80748 39988 ft 528 kts 216°
2026-05-03 22:29 62.10475 -105.89662 39989 ft 523 kts 216°
2026-05-03 22:30 62.04564 -105.98426 39980 ft 517 kts 217°
2026-05-03 22:30 61.98670 -106.07126 39979 ft 519 kts 217°
2026-05-03 22:31 61.92739 -106.15836 39980 ft 518 kts 217°
2026-05-03 22:31 61.86814 -106.24496 39967 ft 517 kts 217°
2026-05-03 22:32 61.80906 -106.33090 39976 ft 517 kts 217°
2026-05-03 22:32 61.74990 -106.41656 39976 ft 517 kts 217°
2026-05-03 22:33 61.69105 -106.50134 39975 ft 517 kts 217°
2026-05-03 22:33 61.63150 -106.58675 39971 ft 517 kts 217°
2026-05-03 22:34 61.57220 -106.67139 39968 ft 518 kts 216°
2026-05-03 22:34 61.51251 -106.75619 39964 ft 518 kts 216°
2026-05-03 22:35 61.45334 -106.83987 39969 ft 518 kts 216°
2026-05-03 22:35 61.39344 -106.92416 39959 ft 518 kts 216°
2026-05-03 22:36 61.33401 -107.00740 39953 ft 517 kts 216°
2026-05-03 22:36 61.27673 -107.08727 39956 ft 518 kts 216°
2026-05-03 22:37 61.21708 -107.17007 39952 ft 518 kts 216°
2026-05-03 22:37 61.15722 -107.25279 39941 ft 518 kts 216°
2026-05-03 22:38 61.09772 -107.33460 39946 ft 518 kts 216°
2026-05-03 22:38 61.03822 -107.41606 39950 ft 519 kts 216°
2026-05-03 22:39 60.97811 -107.49797 39947 ft 519 kts 216°
2026-05-03 22:39 60.91777 -107.57982 39949 ft 518 kts 216°
2026-05-03 22:40 60.85786 -107.66070 39935 ft 519 kts 216°
2026-05-03 22:40 60.79771 -107.74155 39933 ft 519 kts 216°
2026-05-03 22:41 60.73775 -107.82177 39931 ft 518 kts 216°
2026-05-03 22:41 60.67766 -107.90181 39929 ft 519 kts 216°
2026-05-03 22:42 60.61731 -107.98183 39939 ft 519 kts 216°
2026-05-03 22:42 60.55670 -108.06182 39926 ft 520 kts 216°
2026-05-03 22:43 60.49626 -108.14123 39932 ft 519 kts 216°
2026-05-03 22:43 60.43550 -108.22070 39931 ft 519 kts 216°
2026-05-03 22:44 60.37525 -108.29916 39938 ft 519 kts 216°
2026-05-03 22:44 60.31472 -108.37762 39930 ft 518 kts 216°
2026-05-03 22:45 60.25394 -108.45605 39928 ft 518 kts 216°
2026-05-03 22:45 60.19363 -108.53354 39927 ft 519 kts 216°
2026-05-03 22:46 60.13271 -108.61147 39925 ft 519 kts 216°
2026-05-03 22:46 60.07208 -108.68867 39934 ft 520 kts 215°
2026-05-03 22:47 60.01108 -108.76601 39942 ft 520 kts 215°
2026-05-03 22:47 59.94983 -108.84332 39937 ft 519 kts 215°
2026-05-03 22:48 59.88919 -108.91951 39932 ft 520 kts 215°
2026-05-03 22:48 59.82798 -108.99609 39924 ft 520 kts 215°
2026-05-03 22:49 59.76733 -109.07165 39932 ft 519 kts 215°
2026-05-03 22:49 59.70594 -109.14777 39945 ft 519 kts 215°
2026-05-03 22:50 59.64476 -109.22333 39944 ft 520 kts 215°
2026-05-03 22:50 59.58400 -109.29803 39951 ft 520 kts 215°
2026-05-03 22:51 59.52268 -109.37309 39956 ft 519 kts 215°
2026-05-03 22:51 59.46158 -109.44757 39963 ft 519 kts 215°
2026-05-03 22:52 59.40044 -109.52177 39955 ft 519 kts 215°
2026-05-03 22:52 59.33925 -109.59570 39963 ft 520 kts 215°
2026-05-03 22:53 59.27813 -109.66925 39961 ft 519 kts 214°
2026-05-03 22:53 59.21677 -109.74277 39966 ft 518 kts 214°
2026-05-03 22:54 59.15524 -109.81617 39964 ft 519 kts 214°
2026-05-03 22:54 59.09369 -109.88930 39966 ft 519 kts 214°
2026-05-03 22:55 59.03225 -109.96197 39972 ft 519 kts 214°
2026-05-03 22:55 58.97010 -110.03186 39971 ft 520 kts 212°
2026-05-03 22:56 58.90711 -110.10022 39958 ft 520 kts 212°
2026-05-03 22:56 58.84403 -110.16827 39948 ft 521 kts 212°
2026-05-03 22:57 58.78115 -110.23575 39943 ft 520 kts 212°
2026-05-03 22:57 58.71843 -110.30274 39947 ft 520 kts 212°
2026-05-03 22:58 58.65501 -110.37019 39950 ft 519 kts 212°
2026-05-03 22:58 58.59182 -110.43710 39948 ft 520 kts 212°
2026-05-03 22:59 58.52897 -110.50337 39950 ft 521 kts 212°
2026-05-03 22:59 58.46573 -110.56978 39951 ft 521 kts 212°
2026-05-03 23:00 58.40251 -110.63588 39957 ft 520 kts 212°
2026-05-03 23:00 58.33942 -110.70157 39963 ft 521 kts 212°
2026-05-03 23:01 58.27579 -110.76756 39964 ft 520 kts 212°
2026-05-03 23:01 58.21255 -110.83288 39969 ft 521 kts 212°
2026-05-03 23:02 58.14945 -110.89779 39970 ft 521 kts 212°
2026-05-03 23:02 58.08593 -110.96285 39973 ft 521 kts 212°
2026-05-03 23:03 58.02214 -111.02792 39977 ft 521 kts 212°
2026-05-03 23:03 57.95829 -111.09280 39985 ft 521 kts 212°
2026-05-03 23:04 57.89511 -111.15674 39981 ft 520 kts 212°
2026-05-03 23:04 57.83121 -111.22113 39976 ft 519 kts 212°
2026-05-03 23:05 57.76820 -111.28436 39967 ft 514 kts 212°
2026-05-03 23:05 57.70525 -111.34731 39967 ft 514 kts 212°
2026-05-03 23:06 57.64195 -111.41035 39960 ft 514 kts 212°
2026-05-03 23:06 57.57925 -111.47255 39956 ft 515 kts 212°
2026-05-03 23:07 57.51598 -111.53505 39953 ft 514 kts 212°
2026-05-03 23:07 57.45325 -111.59678 39945 ft 512 kts 212°
2026-05-03 23:08 57.39012 -111.65868 39948 ft 514 kts 211°
2026-05-03 23:08 57.32716 -111.72016 39946 ft 515 kts 211°
2026-05-03 23:09 57.26403 -111.78154 39954 ft 514 kts 212°
2026-05-03 23:09 57.20104 -111.84257 39948 ft 514 kts 212°
2026-05-03 23:10 57.13793 -111.90349 39940 ft 515 kts 212°
2026-05-03 23:10 57.07448 -111.96448 39932 ft 514 kts 212°
2026-05-03 23:11 57.01117 -112.02510 39929 ft 515 kts 212°
2026-05-03 23:11 56.94761 -112.08573 39927 ft 514 kts 212°
2026-05-03 23:12 56.88475 -112.14547 39913 ft 515 kts 212°
2026-05-03 23:12 56.82147 -112.20537 39913 ft 514 kts 212°
2026-05-03 23:13 56.75809 -112.26513 39913 ft 514 kts 212°
2026-05-03 23:13 56.69460 -112.32478 39919 ft 515 kts 212°
2026-05-03 23:14 56.63150 -112.38383 39908 ft 515 kts 212°
2026-05-03 23:14 56.56771 -112.44329 39917 ft 514 kts 212°
2026-05-03 23:15 56.50478 -112.50173 39914 ft 513 kts 212°
2026-05-03 23:15 56.44122 -112.56055 39913 ft 515 kts 212°
2026-05-03 23:16 56.37796 -112.61885 39918 ft 514 kts 212°
2026-05-03 23:16 56.31423 -112.67738 39918 ft 515 kts 211°
2026-05-03 23:17 56.25058 -112.73561 39917 ft 515 kts 211°
2026-05-03 23:17 56.18734 -112.79324 39915 ft 515 kts 211°
2026-05-03 23:18 56.12381 -112.85093 39915 ft 515 kts 211°
2026-05-03 23:18 56.06008 -112.90859 39918 ft 516 kts 211°
2026-05-03 23:19 55.99614 -112.96621 39917 ft 516 kts 211°
2026-05-03 23:19 55.93228 -113.02357 39923 ft 517 kts 212°
2026-05-03 23:20 55.86815 -113.08092 39915 ft 515 kts 212°
2026-05-03 23:20 55.80434 -113.13779 39919 ft 516 kts 212°
2026-05-03 23:21 55.74046 -113.19452 39926 ft 516 kts 212°
2026-05-03 23:21 55.67650 -113.25110 39923 ft 514 kts 212°
2026-05-03 23:22 55.58063 -113.33555 39914 ft 518 kts 212°
2026-05-03 23:22 55.51626 -113.39197 39923 ft 517 kts 212°
2026-05-03 23:23 55.45229 -113.44783 39917 ft 513 kts 213°
2026-05-03 23:23 55.38875 -113.50314 39927 ft 516 kts 213°
2026-05-03 23:24 55.32439 -113.55896 39923 ft 517 kts 213°
2026-05-03 23:24 55.26033 -113.61430 39919 ft 517 kts 213°
2026-05-03 23:25 55.19640 -113.66933 39935 ft 514 kts 212°
2026-05-03 23:25 55.13199 -113.72461 39941 ft 521 kts 212°
2026-05-03 23:26 55.06750 -113.77969 39933 ft 515 kts 212°
2026-05-03 23:26 55.00300 -113.83464 39933 ft 519 kts 213°
2026-05-03 23:27 54.93809 -113.88971 39954 ft 518 kts 213°
2026-05-03 23:27 54.87352 -113.94430 39932 ft 518 kts 213°
2026-05-03 23:28 54.80927 -113.99842 39921 ft 516 kts 213°
2026-05-03 23:28 54.74489 -114.05248 39938 ft 517 kts 213°
2026-05-03 23:29 54.68030 -114.10649 39945 ft 516 kts 213°
2026-05-03 23:29 54.61577 -114.16031 39947 ft 519 kts 213°
2026-05-03 23:30 54.55141 -114.21375 39951 ft 517 kts 213°
2026-05-03 23:30 54.48657 -114.26743 39953 ft 520 kts 213°
2026-05-03 23:31 54.42183 -114.32080 39969 ft 518 kts 213°
2026-05-03 23:31 54.35648 -114.37453 39961 ft 521 kts 213°
2026-05-03 23:32 54.29185 -114.42744 39965 ft 517 kts 213°
2026-05-03 23:32 54.23185 -114.49170 39973 ft 510 kts 224°
2026-05-03 23:33 54.17432 -114.56149 39991 ft 507 kts 224°
2026-05-03 23:33 54.11693 -114.63049 39993 ft 509 kts 224°
2026-05-03 23:34 54.05941 -114.69910 40003 ft 509 kts 223°
2026-05-03 23:34 54.00140 -114.76789 40011 ft 509 kts 223°
2026-05-03 23:35 53.94342 -114.83633 40008 ft 507 kts 223°
2026-05-03 23:35 53.88591 -114.90389 39980 ft 505 kts 223°
2026-05-03 23:36 53.82773 -114.97206 39999 ft 510 kts 223°
2026-05-03 23:36 53.77016 -115.03920 40003 ft 505 kts 223°
2026-05-03 23:37 53.71212 -115.10668 39980 ft 506 kts 222°
2026-05-03 23:37 53.65458 -115.17334 39994 ft 504 kts 223°
2026-05-03 23:38 53.59652 -115.24038 40003 ft 505 kts 223°
2026-05-03 23:38 53.53889 -115.30672 39996 ft 507 kts 223°
2026-05-03 23:39 53.48087 -115.37324 40014 ft 507 kts 223°
2026-05-03 23:39 53.42316 -115.43918 40023 ft 503 kts 223°
2026-05-03 23:40 53.36581 -115.50455 40018 ft 505 kts 222°
2026-05-03 23:40 53.30786 -115.57031 40040 ft 503 kts 223°
2026-05-03 23:41 53.24975 -115.63612 40031 ft 508 kts 222°
2026-05-03 23:41 53.19197 -115.70122 40038 ft 501 kts 222°
2026-05-03 23:42 53.13419 -115.76620 40033 ft 506 kts 221°
2026-05-03 23:42 53.07631 -115.83103 40054 ft 502 kts 221°
2026-05-03 23:43 53.01826 -115.89587 40050 ft 504 kts 221°
2026-05-03 23:43 52.96057 -115.96009 40054 ft 504 kts 221°
2026-05-03 23:44 52.90248 -116.02451 40056 ft 501 kts 221°
2026-05-03 23:44 52.84437 -116.08878 40034 ft 502 kts 221°
2026-05-03 23:45 52.78656 -116.15253 40051 ft 506 kts 221°
2026-05-03 23:45 52.72812 -116.21670 40039 ft 502 kts 221°
2026-05-03 23:46 52.66997 -116.28038 40062 ft 505 kts 221°
2026-05-03 23:46 52.61233 -116.34327 40057 ft 502 kts 221°
2026-05-03 23:47 52.55391 -116.40685 40069 ft 502 kts 221°
2026-05-03 23:47 52.49607 -116.46957 40060 ft 503 kts 220°
2026-05-03 23:48 52.43777 -116.53259 40064 ft 505 kts 221°
2026-05-03 23:48 52.37940 -116.59548 40070 ft 503 kts 220°
2026-05-03 23:49 52.32129 -116.65790 40061 ft 504 kts 220°
2026-05-03 23:49 52.26273 -116.72061 40082 ft 508 kts 219°
2026-05-03 23:50 52.21378 -116.77284 40094 ft 504 kts 219°
2026-05-03 23:50 52.14519 -116.84583 40095 ft 507 kts 219°
2026-05-03 23:51 52.08654 -116.90801 40116 ft 504 kts 219°
2026-05-03 23:51 52.02785 -116.97002 40110 ft 503 kts 219°
2026-05-03 23:52 51.96950 -117.03151 40103 ft 504 kts 219°
2026-05-03 23:52 51.91059 -117.09339 40110 ft 506 kts 219°
2026-05-03 23:53 51.85191 -117.15483 40104 ft 507 kts 219°
2026-05-03 23:53 51.79317 -117.21613 40097 ft 508 kts 219°
2026-05-03 23:54 51.73371 -117.27799 40098 ft 507 kts 219°
2026-05-03 23:54 51.67445 -117.33946 40091 ft 510 kts 218°
2026-05-03 23:55 51.61507 -117.40083 40072 ft 508 kts 218°
2026-05-03 23:55 51.55557 -117.46215 40046 ft 508 kts 218°
2026-05-03 23:56 51.49608 -117.52328 40043 ft 511 kts 218°
2026-05-03 23:56 51.43642 -117.58436 40079 ft 509 kts 218°
2026-05-03 23:57 51.37687 -117.64516 40078 ft 510 kts 218°
2026-05-03 23:57 51.31736 -117.70572 40082 ft 507 kts 217°
2026-05-03 23:58 51.25784 -117.76611 40085 ft 510 kts 217°
2026-05-03 23:58 51.19809 -117.82654 40078 ft 511 kts 217°
2026-05-03 23:59 51.13805 -117.88706 40083 ft 510 kts 217°
2026-05-03 23:59 51.07821 -117.94721 40083 ft 511 kts 217°
2026-05-04 00:00 51.01807 -118.00747 40083 ft 512 kts 216°
2026-05-04 00:00 50.95832 -118.06714 40065 ft 510 kts 217°
2026-05-04 00:01 50.89821 -118.12700 40046 ft 510 kts 216°
2026-05-04 00:01 50.83815 -118.18662 40032 ft 511 kts 216°
2026-05-04 00:02 50.77802 -118.24613 40067 ft 512 kts 217°
2026-05-04 00:02 50.71794 -118.30540 40069 ft 510 kts 216°
2026-05-04 00:03 50.65749 -118.36487 40072 ft 512 kts 216°
2026-05-04 00:03 50.59710 -118.42409 40073 ft 513 kts 217°
2026-05-04 00:04 50.53669 -118.48314 40069 ft 514 kts 217°
2026-05-04 00:04 50.47635 -118.54195 40057 ft 514 kts 216°
2026-05-04 00:05 50.41581 -118.60076 40030 ft 511 kts 216°
2026-05-04 00:05 50.35532 -118.65936 40007 ft 514 kts 215°
2026-05-04 00:06 50.29401 -118.71858 39998 ft 514 kts 215°
2026-05-04 00:06 50.23346 -118.77687 39996 ft 514 kts 215°
2026-05-04 00:07 50.17216 -118.83571 40027 ft 515 kts 215°
2026-05-04 00:07 50.11120 -118.89404 40063 ft 517 kts 215°
2026-05-04 00:08 50.04980 -118.95262 40090 ft 518 kts 215°
2026-05-04 00:08 49.98830 -119.01121 40092 ft 517 kts 215°
2026-05-04 00:09 49.92809 -119.07059 40099 ft 517 kts 216°
2026-05-04 00:09 49.86721 -119.13065 40071 ft 517 kts 216°
2026-05-04 00:10 49.80676 -119.19003 40064 ft 516 kts 215°
2026-05-04 00:10 49.74619 -119.24928 40068 ft 514 kts 215°
2026-05-04 00:11 49.68562 -119.30837 40054 ft 515 kts 215°
2026-05-04 00:11 49.62521 -119.36710 40048 ft 517 kts 215°
2026-05-04 00:12 49.56471 -119.42573 40026 ft 517 kts 215°
2026-05-04 00:12 49.50383 -119.48455 40022 ft 516 kts 215°
2026-05-04 00:13 49.44281 -119.54333 39978 ft 517 kts 215°
2026-05-04 00:13 49.38200 -119.60174 39988 ft 518 kts 214°
2026-05-04 00:14 49.32103 -119.66013 40013 ft 519 kts 214°
2026-05-04 00:14 49.26006 -119.71834 40035 ft 517 kts 214°
2026-05-04 00:15 49.19916 -119.77631 40077 ft 518 kts 214°
2026-05-04 00:15 49.13775 -119.83459 40088 ft 519 kts 213°
2026-05-04 00:16 49.07693 -119.89216 40109 ft 517 kts 213°
2026-05-04 00:16 49.01562 -119.95000 40126 ft 517 kts 213°
2026-05-04 00:17 48.95474 -120.00729 40144 ft 519 kts 213°
2026-05-04 00:17 48.89331 -120.06635 40131 ft 518 kts 218°
2026-05-04 00:18 48.83556 -120.13114 40123 ft 518 kts 219°
2026-05-04 00:18 48.77748 -120.19617 40118 ft 519 kts 218°
2026-05-04 00:19 48.71943 -120.26059 40112 ft 521 kts 218°
2026-05-04 00:19 48.66101 -120.32503 40105 ft 521 kts 218°
2026-05-04 00:20 48.60274 -120.38899 40107 ft 520 kts 218°
2026-05-04 00:20 48.54452 -120.45264 40109 ft 520 kts 218°
2026-05-04 00:21 48.48607 -120.51633 39720 ft 514 kts 218°
2026-05-04 00:21 48.45696 -120.54798 38459 ft 520 kts 218°
2026-05-04 00:21 48.42757 -120.57989 37254 ft 525 kts 217°
2026-05-04 00:22 48.39801 -120.61192 36263 ft 526 kts 217°
2026-05-04 00:22 48.36843 -120.64393 35279 ft 527 kts 217°
2026-05-04 00:22 48.33868 -120.67607 34259 ft 528 kts 216°
2026-05-04 00:22 48.30893 -120.70817 33294 ft 529 kts 216°
2026-05-04 00:23 48.27925 -120.74013 32276 ft 530 kts 216°
2026-05-04 00:23 48.24940 -120.77223 31485 ft 527 kts 216°
2026-05-04 00:23 48.21997 -120.80383 30731 ft 522 kts 216°
2026-05-04 00:23 48.19055 -120.83538 29979 ft 518 kts 216°
2026-05-04 00:24 48.16149 -120.86650 29240 ft 514 kts 216°
2026-05-04 00:24 48.13242 -120.89758 28507 ft 510 kts 216°
2026-05-04 00:24 48.10403 -120.92790 27790 ft 506 kts 216°
2026-05-04 00:24 48.07558 -120.95824 27069 ft 501 kts 216°
2026-05-04 00:25 48.04730 -120.98834 26349 ft 497 kts 216°
2026-05-04 00:25 48.01933 -121.01810 25629 ft 492 kts 216°
2026-05-04 00:25 47.99188 -121.04724 24923 ft 487 kts 216°
2026-05-04 00:25 47.96434 -121.07644 24177 ft 482 kts 216°
2026-05-04 00:26 47.93804 -121.10676 23435 ft 476 kts 223°
2026-05-04 00:26 47.91574 -121.14137 22643 ft 465 kts 232°
2026-05-04 00:26 47.89777 -121.18032 22041 ft 448 kts 242°
2026-05-04 00:26 47.88470 -121.22189 21372 ft 442 kts 251°
2026-05-04 00:27 47.87656 -121.26530 20696 ft 435 kts 261°
2026-05-04 00:27 47.87330 -121.30911 20036 ft 428 kts 270°
2026-05-04 00:27 47.87297 -121.35312 19373 ft 423 kts 272°
2026-05-04 00:27 47.87336 -121.39664 18715 ft 419 kts 274°
2026-05-04 00:28 47.87432 -121.43972 18180 ft 411 kts 275°
2026-05-04 00:28 47.87569 -121.48113 17738 ft 403 kts 275°
2026-05-04 00:28 47.87736 -121.52229 17293 ft 396 kts 276°
2026-05-04 00:28 47.87924 -121.56273 16852 ft 389 kts 276°
2026-05-04 00:29 47.88119 -121.60232 16407 ft 382 kts 275°
2026-05-04 00:29 47.88008 -121.64147 15952 ft 379 kts 263°
2026-05-04 00:29 47.87374 -121.67910 15523 ft 375 kts 251°
2026-05-04 00:29 47.86239 -121.71420 15073 ft 372 kts 239°
2026-05-04 00:30 47.84708 -121.74446 14620 ft 368 kts 229°
2026-05-04 00:30 47.82984 -121.77196 14218 ft 363 kts 226°
2026-05-04 00:30 47.81250 -121.79874 13841 ft 358 kts 226°
2026-05-04 00:30 47.79481 -121.82501 13449 ft 354 kts 225°
2026-05-04 00:31 47.77732 -121.85001 13068 ft 351 kts 224°
2026-05-04 00:31 47.75954 -121.87486 12667 ft 348 kts 223°
2026-05-04 00:31 47.74189 -121.89911 12267 ft 347 kts 223°
2026-05-04 00:31 47.72442 -121.92287 12019 ft 342 kts 223°
2026-05-04 00:32 47.70687 -121.94661 11956 ft 344 kts 223°
2026-05-04 00:32 47.68914 -121.97053 11964 ft 345 kts 222°
2026-05-04 00:32 47.67135 -121.99448 11969 ft 344 kts 222°
2026-05-04 00:32 47.65366 -122.01823 11973 ft 346 kts 222°
2026-05-04 00:33 47.63575 -122.04229 11971 ft 344 kts 222°
2026-05-04 00:33 47.60030 -122.08979 11975 ft 344 kts 222°
2026-05-04 00:33 47.58254 -122.11350 11972 ft 345 kts 222°
2026-05-04 00:34 47.56457 -122.13625 11968 ft 344 kts 215°
2026-05-04 00:34 47.54294 -122.15119 11965 ft 344 kts 194°
2026-05-04 00:34 47.51910 -122.15411 11974 ft 342 kts 177°
2026-05-04 00:34 47.49545 -122.15176 11911 ft 342 kts 175°
2026-05-04 00:35 47.47183 -122.14896 11559 ft 337 kts 175°
2026-05-04 00:35 47.44868 -122.14612 11176 ft 333 kts 175°
2026-05-04 00:35 47.42582 -122.14321 10792 ft 330 kts 175°
2026-05-04 00:35 47.40304 -122.14019 10381 ft 325 kts 175°
2026-05-04 00:36 47.38088 -122.13715 9981 ft 311 kts 175°
2026-05-04 00:36 47.35991 -122.13418 9635 ft 296 kts 175°
2026-05-04 00:36 47.33974 -122.13123 9289 ft 289 kts 175°
2026-05-04 00:36 47.31968 -122.12835 8904 ft 291 kts 175°
2026-05-04 00:37 47.29977 -122.12556 8529 ft 291 kts 175°
2026-05-04 00:37 47.27946 -122.12283 8138 ft 283 kts 175°
2026-05-04 00:37 47.26036 -122.12028 7758 ft 271 kts 175°
2026-05-04 00:37 47.24169 -122.11782 7374 ft 268 kts 175°
2026-05-04 00:38 47.22331 -122.11543 6995 ft 266 kts 175°
2026-05-04 00:38 47.20478 -122.11301 6605 ft 263 kts 175°
2026-05-04 00:38 47.18679 -122.11492 6218 ft 261 kts 198°
2026-05-04 00:38 47.17175 -122.12854 5824 ft 258 kts 227°
2026-05-04 00:39 47.16325 -122.15021 5434 ft 253 kts 256°
2026-05-04 00:39 47.16300 -122.17533 5054 ft 246 kts 287°
2026-05-04 00:39 47.17116 -122.19669 4743 ft 238 kts 312°
2026-05-04 00:39 47.18220 -122.21439 4459 ft 234 kts 315°
2026-05-04 00:40 47.19324 -122.23183 4176 ft 230 kts 315°
2026-05-04 00:40 47.20405 -122.24871 3938 ft 224 kts 318°
2026-05-04 00:40 47.21605 -122.26290 3727 ft 219 kts 324°
2026-05-04 00:40 47.22818 -122.27625 3516 ft 217 kts 325°
2026-05-04 00:41 47.24011 -122.28944 3310 ft 213 kts 325°
2026-05-04 00:41 47.25183 -122.30226 3105 ft 208 kts 329°
2026-05-04 00:41 47.26515 -122.30920 2910 ft 200 kts 353°
2026-05-04 00:41 47.27893 -122.31017 2719 ft 195 kts
2026-05-04 00:42 47.29229 -122.30972 2534 ft 192 kts
2026-05-04 00:42 47.30558 -122.30932 2343 ft 184 kts
2026-05-04 00:42 47.31810 -122.30915 2178 ft 179 kts
2026-05-04 00:42 47.33003 -122.30903 1995 ft 166 kts
2026-05-04 00:43 47.34114 -122.30889 1831 ft 153 kts
2026-05-04 00:43 47.35146 -122.30878 1678 ft 144 kts
2026-05-04 00:43 47.36147 -122.30868 1533 ft 146 kts
2026-05-04 00:43 47.37174 -122.30859 1372 ft 144 kts
2026-05-04 00:44 47.38150 -122.30849 1213 ft 137 kts
2026-05-04 00:44 47.39064 -122.30840 1069 ft 126 kts
2026-05-04 00:44 47.39941 -122.30833 924 ft 125 kts
2026-05-04 00:44 47.40813 -122.30824 749 ft 128 kts
2026-05-04 00:45 47.41690 -122.30824 607 ft 125 kts 359°
2026-05-04 00:45 47.42562 -122.30817 453 ft 125 kts 359°
2026-05-04 00:45 47.43429 -122.30809 348 ft 119 kts 359°
2026-05-04 00:45 47.44120 -122.30798 379 ft 77 kts
2026-05-04 00:46 47.44464 -122.30788 390 ft 21 kts
2026-05-04 00:46 47.44553 -122.30780 393 ft 9 kts 16°
2026-05-04 00:46 47.44584 -122.30686 395 ft 14 kts 108°
2026-05-04 00:46 47.44483 -122.30629 393 ft 20 kts 179°
2026-05-04 00:47 47.44456 -122.30628 392 ft 21 kts 180°
2026-05-04 00:48 47.44443 -122.30628 391 ft 22 kts 180°
2026-05-04 00:48 47.44280 -122.30633 387 ft 23 kts 182°
2026-05-04 00:49 47.44109 -122.30637 381 ft 23 kts 180°
2026-05-04 00:49 47.43952 -122.30638 376 ft 20 kts 180°
2026-05-04 00:49 47.43830 -122.30639 371 ft 17 kts 180°
2026-05-04 00:49 47.43763 -122.30600 369 ft 11 kts 121°
2026-05-04 00:50 47.43758 -122.30482 370 ft 11 kts 65°
2026-05-04 00:50 47.43790 -122.30428 372 ft 4 kts 46°
2026-05-04 00:50 47.43801 -122.30411 373 ft 1 kts 46°
2026-05-04 00:50 47.43802 -122.30410 373 ft 0 kts 46°